Regional Weather Roundup
Issued by NWS Lake Charles, LA

Home | Current Version | Previous Version | Text Only | Print | Product List | Glossary On
Versions: 1 2 3 4 5 6 7 8 9 10 11 12 13 14 15 16 17 18 19 20 21 22 23 24 25 26 27 28 29 30 31 32 33 34 35 36 37 38 39 40 41 42 43 44 45 46 47 48 49 50
000
ASUS44 KLCH 032210
RWRLCH
RWRLCH
REGIONAL WEATHER ROUNDUP
NATIONAL WEATHER SERVICE LAKE CHARLES LA
500 PM CDT MON AUG 03 2015

Note: "fair" indicates few or no clouds below 12,000 feet with no
significant weather and/or obstructions to visibility.


ACROSS SOUTHEAST TEXAS

CITY           SKY/WX    TMP DP  RH WIND       PRES   REMARKS
BEAUMONT       MOSUNNY   96  65  35 SE9       29.87S
BEAUMONT CITY  MOCLDY    97  64  34 S5        29.88R
ORANGE         MOCLDY    94  56  27 CALM      29.89S
JASPER         SUNNY     99  58  25 E5        29.90S
$$

ACROSS CENTRAL LOUISIANA

CITY           SKY/WX    TMP DP  RH WIND       PRES   REMARKS
LEESVILLE      MOSUNNY   97  64  33 E8        29.87S
FULLERTON        N/A     97  64  33 VRB3      29.86S
ALEXANDRIA INT SUNNY     98  62  30 SE10G16   29.86F
ESLER FIELD    PTSUNNY   97  65  34 E6        29.88F
DERIDDER         N/A     96  61  30 SE7       29.90S
OAKDALE          N/A     98  65  33 E6        29.88S HX 101
OPELOUSAS        N/A     95  68  40 SE6       29.88S
$$

ACROSS SOUTHWEST AND SOUTH CENTRAL LOUISIANA

CITY           SKY/WX    TMP DP  RH WIND       PRES   REMARKS
SULPHUR        CLEAR     97  63  32 SE9       29.88S
LAKE CHARLES   SUNNY     97  62  31 E8        29.87F
CHENNAULT INT  MOSUNNY   97  63  32 E7        29.88S
CAMERON PHI    CLEAR     91  73  55 SW13      29.92S HX 100
DEQUINCY         N/A     96  64  34 SE5       29.88R
JENNINGS         N/A     97  59  28 E6G16     29.88R
LAFAYETTE      MOSUNNY   93  71  48 S7        29.88S HX 100
NEW IBERIA     MOSUNNY   91  78  65 S15       29.90R HX 106
ABBEVILLE        N/A     90  78  68 SE13G20   29.90S HX 103
PATTERSON      MOSUNNY   84  73  70 SE10      29.92S
SALT POINT       N/A     85  77  77 MISG      29.89F
$$

SELECTED SITES ACROSS THE REGION

CITY           SKY/WX    TMP DP  RH WIND       PRES   REMARKS
HOUSTON BUSH   MOSUNNY   95  65  37 NE10      29.86F
HOUSTON HOBBY  MOSUNNY   94  70  45 SE10G20   29.86F HX 100
GALVESTON      MOSUNNY   91  76  61 S15       29.90F HX 103
COLLEGE STAT   MOSUNNY   97  60  29 E9        29.87F
CONROE         SUNNY     95  59  30 SE10      29.88F
HUNTSVILLE     SUNNY     98  60  28 E6        29.88F
LUFKIN         MOSUNNY   97  61  30 VRB3      29.88F
SHREVEPORT     MOSUNNY  100  60  26 E12       29.88F HX 100
MONROE         SUNNY     97  65  34 NE7       29.90F
NATCHEZ MS     MOSUNNY   93  68  43 N8        29.90F
BATON ROUGE    SUNNY     97  65  34 SE9       29.89S
N.O. INTL ARPT PTSUNNY   87  70  56 SW7       29.91F
SLIDELL        CLOUDY    88  77  69 S8        29.90S HX 100
$$

MARINE REPORTS

STATION/POSITION TIME  TEMP    WIND        PRES    VSBY  WAVE
                       AIR SEA DIR/SP/G                  HT/PER
                 (UTC) (F)     (DEG/KT/KT) (MB)    (MI)  (FT/S)
BUOY 30 S HIGH I 2150   86 88  160/ 10/ 12 1012.1F         1/ 4
SEA RIM ST PARK  2200   88     170/ 12/ 14 1012.8R
PORT ARTHUR      2100      89  130/  3/  8 1012.1F
SABINE PASS N    2100   90 89  170/ 11/ 15 1012.3F
TEXAS POINT      NOT AVBL
CALCASIEU PASS   2100   88 89  220/ 12/ 13 1011.5F
LK CHARLES BEACH 2100   96 88                N/A
MARSH ISLAND     2100   83     140/ 10/ 13   N/A           0
FRESH WATER LOCK 2100   87 89  100/ 10/ 16 1012.4F
AMERADA PASS     2100   83 87  150/  8/ 14 1012.9F
$$


USA.gov is the U.S. government's official web portal to all federal, state and local government web resources and services.